Time,TemperatureF,DewpointF,PressureIn,WindDirection,WindDirectionDegrees,WindSpeedMPH,WindSpeedGustMPH,Humidity,HourlyPrecipIn,Conditions,Clouds,dailyrainin,SolarRadiationWatts/m^2,SoftwareType,DateUTC
2013-04-29 00:02:00,75.0,62.0,-100.00,East,81,1.0,4.0,65,0.00,,,0.00,0.000000,,2013-04-29 10:02:00,
2013-04-29 00:12:00,75.0,62.0,-100.00,East,81,1.0,4.0,65,0.00,,,0.00,0.000000,,2013-04-29 10:12:00,
2013-04-29 00:42:00,75.0,62.0,-100.00,ENE,63,1.0,3.0,64,0.00,,,0.00,0.000000,,2013-04-29 10:42:00,
2013-04-29 00:52:00,75.0,62.0,-100.00,ENE,63,1.0,3.0,64,0.00,,,0.00,0.000000,,2013-04-29 10:52:00,
2013-04-29 01:02:00,75.0,62.0,-100.00,ENE,63,1.0,3.0,64,0.00,,,0.00,0.000000,,2013-04-29 11:02:00,
2013-04-29 01:12:00,75.0,62.0,-100.00,ENE,63,1.0,3.0,64,0.00,,,0.00,0.000000,,2013-04-29 11:12:00,
2013-04-29 01:21:00,75.0,62.0,-100.00,ENE,63,1.0,3.0,64,0.00,,,0.00,0.000000,,2013-04-29 11:21:00,
2013-04-29 01:42:00,73.0,61.0,-100.00,East,95,2.0,4.0,67,0.00,,,0.00,0.000000,,2013-04-29 11:42:00,
2013-04-29 01:52:00,73.0,61.0,-100.00,East,95,2.0,4.0,67,0.00,,,0.00,0.000000,,2013-04-29 11:52:00,
2013-04-29 02:01:00,73.0,61.0,-100.00,East,95,2.0,4.0,67,0.00,,,0.00,0.000000,,2013-04-29 12:01:00,
2013-04-29 02:11:00,73.0,61.0,-100.00,East,95,2.0,4.0,67,0.00,,,0.00,0.000000,,2013-04-29 12:11:00,
2013-04-29 02:21:00,73.0,61.0,-100.00,East,95,2.0,4.0,67,0.00,,,0.00,0.000000,,2013-04-29 12:21:00,
2013-04-29 02:42:00,73.0,59.0,-100.00,East,83,2.0,4.0,62,0.00,,,0.00,0.000000,,2013-04-29 12:42:00,
2013-04-29 02:52:00,73.0,59.0,-100.00,East,83,2.0,4.0,62,0.00,,,0.00,0.000000,,2013-04-29 12:52:00,
2013-04-29 03:01:00,73.0,59.0,-100.00,East,83,2.0,4.0,62,0.00,,,0.00,0.000000,,2013-04-29 13:01:00,
2013-04-29 03:11:00,73.0,59.0,-100.00,East,83,2.0,4.0,62,0.00,,,0.00,0.000000,,2013-04-29 13:11:00,
2013-04-29 03:21:00,73.0,59.0,-100.00,East,83,2.0,4.0,62,0.00,,,0.00,0.000000,,2013-04-29 13:21:00,
2013-04-29 03:42:00,74.0,60.0,-100.00,ENE,75,1.0,4.0,62,0.00,,,0.00,0.000000,,2013-04-29 13:42:00,
2013-04-29 03:52:00,74.0,60.0,-100.00,ENE,75,1.0,4.0,62,0.00,,,0.00,0.000000,,2013-04-29 13:52:00,
2013-04-29 04:01:00,74.0,60.0,-100.00,ENE,75,1.0,4.0,62,0.00,,,0.00,0.000000,,2013-04-29 14:01:00,
2013-04-29 04:11:00,74.0,60.0,-100.00,ENE,75,1.0,4.0,62,0.00,,,0.00,0.000000,,2013-04-29 14:11:00,
2013-04-29 04:21:00,74.0,60.0,-100.00,ENE,75,1.0,4.0,62,0.00,,,0.00,0.000000,,2013-04-29 14:21:00,
2013-04-29 04:42:00,72.0,58.0,-100.00,East,85,2.0,6.0,62,0.00,,,-99.99,0.000000,,2013-04-29 14:42:00,
2013-04-29 04:52:00,72.0,58.0,-100.00,East,85,2.0,6.0,62,0.00,,,-99.99,0.000000,,2013-04-29 14:52:00,
2013-04-29 05:01:00,72.0,58.0,-100.00,East,85,2.0,6.0,62,0.00,,,-99.99,0.000000,,2013-04-29 15:01:00,
2013-04-29 05:12:00,72.0,58.0,-100.00,East,85,2.0,6.0,62,0.00,,,-99.99,0.000000,,2013-04-29 15:12:00,
2013-04-29 05:21:00,72.0,58.0,-100.00,East,85,2.0,6.0,62,0.00,,,-99.99,0.000000,,2013-04-29 15:21:00,
2013-04-29 05:22:00,71.0,57.0,-100.00,East,79,3.0,7.0,61,0.00,,,0.00,0.000000,,2013-04-29 15:22:00,
2013-04-29 05:43:00,71.0,57.0,-100.00,East,79,3.0,7.0,61,0.00,,,0.00,0.000000,,2013-04-29 15:43:00,
2013-04-29 05:53:00,71.0,57.0,-100.00,East,79,3.0,7.0,61,0.00,,,0.00,0.000000,,2013-04-29 15:53:00,
2013-04-29 06:02:00,71.0,57.0,-100.00,East,79,3.0,7.0,61,0.00,,,0.00,0.000000,,2013-04-29 16:02:00,
2013-04-29 06:12:00,71.0,57.0,-100.00,East,79,3.0,7.0,61,0.00,,,0.00,0.000000,,2013-04-29 16:12:00,
2013-04-29 06:22:00,70.0,54.0,-100.00,ENE,74,4.0,8.0,57,0.00,,,0.00,0.000000,,2013-04-29 16:22:00,
2013-04-29 06:42:00,70.0,54.0,-100.00,ENE,74,4.0,8.0,57,0.00,,,0.00,0.000000,,2013-04-29 16:42:00,
2013-04-29 06:52:00,70.0,54.0,-100.00,ENE,74,4.0,8.0,57,0.00,,,0.00,0.000000,,2013-04-29 16:52:00,
2013-04-29 07:02:00,70.0,54.0,-100.00,ENE,74,4.0,8.0,57,0.00,,,0.00,0.000000,,2013-04-29 17:02:00,
2013-04-29 07:11:00,70.0,54.0,-100.00,ENE,74,4.0,8.0,57,0.00,,,0.00,0.000000,,2013-04-29 17:11:00,
2013-04-29 07:22:00,72.0,51.0,-100.00,ENE,73,4.0,8.0,47,0.00,,,0.00,60.000000,,2013-04-29 17:22:00,
2013-04-29 07:42:00,72.0,51.0,-100.00,ENE,73,4.0,8.0,47,0.00,,,0.00,60.000000,,2013-04-29 17:42:00,
2013-04-29 07:52:00,72.0,51.0,-100.00,ENE,73,4.0,8.0,47,0.00,,,0.00,60.000000,,2013-04-29 17:52:00,
2013-04-29 08:01:00,72.0,51.0,-100.00,ENE,73,4.0,8.0,47,0.00,,,0.00,60.000000,,2013-04-29 18:01:00,
2013-04-29 08:12:00,72.0,51.0,-100.00,ENE,73,4.0,8.0,47,0.00,,,0.00,60.000000,,2013-04-29 18:12:00,
2013-04-29 08:52:00,78.0,55.0,-100.00,West,279,2.0,7.0,45,0.00,,,0.00,278.000000,,2013-04-29 18:52:00,
2013-04-29 09:01:00,78.0,55.0,-100.00,West,279,2.0,7.0,45,0.00,,,0.00,278.000000,,2013-04-29 19:01:00,
2013-04-29 09:11:00,78.0,55.0,-100.00,West,279,2.0,7.0,45,0.00,,,0.00,278.000000,,2013-04-29 19:11:00,
2013-04-29 09:21:00,78.0,55.0,-100.00,West,279,2.0,7.0,45,0.00,,,0.00,278.000000,,2013-04-29 19:21:00,
2013-04-29 09:42:00,80.0,57.0,-100.00,SW,229,3.0,6.0,46,0.00,,,0.00,464.000000,,2013-04-29 19:42:00,
2013-04-29 09:52:00,80.0,57.0,-100.00,SW,229,3.0,6.0,46,0.00,,,0.00,464.000000,,2013-04-29 19:52:00,
2013-04-29 10:02:00,80.0,57.0,-100.00,SW,229,3.0,6.0,46,0.00,,,0.00,464.000000,,2013-04-29 20:02:00,
2013-04-29 10:11:00,80.0,57.0,-100.00,SW,229,3.0,6.0,46,0.00,,,0.00,464.000000,,2013-04-29 20:11:00,
2013-04-29 10:21:00,80.0,57.0,-100.00,SW,229,3.0,6.0,46,0.00,,,0.00,464.000000,,2013-04-29 20:21:00,
2013-04-29 10:42:00,80.0,60.0,-100.00,WSW,256,3.0,7.0,50,0.00,,,0.00,693.000000,,2013-04-29 20:42:00,
2013-04-29 10:52:00,80.0,60.0,-100.00,WSW,256,3.0,7.0,50,0.00,,,0.00,693.000000,,2013-04-29 20:52:00,
2013-04-29 11:01:00,80.0,60.0,-100.00,WSW,256,3.0,7.0,50,0.00,,,0.00,693.000000,,2013-04-29 21:01:00,
2013-04-29 11:11:00,80.0,60.0,-100.00,WSW,256,3.0,7.0,50,0.00,,,0.00,693.000000,,2013-04-29 21:11:00,
2013-04-29 11:21:00,80.0,60.0,-100.00,WSW,256,3.0,7.0,50,0.00,,,0.00,693.000000,,2013-04-29 21:21:00,
2013-04-29 11:22:00,81.0,64.0,-100.00,West,266,4.0,10.0,56,0.00,,,0.00,854.000000,,2013-04-29 21:22:00,
2013-04-29 11:43:00,81.0,64.0,-100.00,West,266,4.0,10.0,56,0.00,,,0.00,854.000000,,2013-04-29 21:43:00,
2013-04-29 11:53:00,81.0,64.0,-100.00,West,266,4.0,10.0,56,0.00,,,0.00,854.000000,,2013-04-29 21:53:00,
2013-04-29 12:02:00,81.0,64.0,-100.00,West,266,4.0,10.0,56,0.00,,,0.00,854.000000,,2013-04-29 22:02:00,
2013-04-29 12:13:00,81.0,64.0,-100.00,West,266,4.0,10.0,56,0.00,,,0.00,854.000000,,2013-04-29 22:13:00,
2013-04-29 12:22:00,82.0,64.0,-100.00,West,272,5.0,9.0,55,0.00,,,0.00,931.000000,,2013-04-29 22:22:00,
2013-04-29 12:42:00,82.0,64.0,-100.00,West,272,5.0,9.0,55,0.00,,,0.00,931.000000,,2013-04-29 22:42:00,
2013-04-29 12:52:00,82.0,64.0,-100.00,West,272,5.0,9.0,55,0.00,,,0.00,931.000000,,2013-04-29 22:52:00,
2013-04-29 13:02:00,82.0,64.0,-100.00,West,272,5.0,9.0,55,0.00,,,0.00,931.000000,,2013-04-29 23:02:00,
2013-04-29 13:11:00,82.0,64.0,-100.00,West,272,5.0,9.0,55,0.00,,,0.00,931.000000,,2013-04-29 23:11:00,
2013-04-29 13:42:00,82.0,65.0,-100.00,West,268,5.0,12.0,56,0.00,,,0.00,819.000000,,2013-04-29 23:42:00,
2013-04-29 13:52:00,82.0,65.0,-100.00,West,268,5.0,12.0,56,0.00,,,0.00,819.000000,,2013-04-29 23:52:00,
2013-04-29 14:01:00,82.0,65.0,-100.00,West,268,5.0,12.0,56,0.00,,,0.00,819.000000,,2013-04-30 00:01:00,
2013-04-29 14:11:00,82.0,65.0,-100.00,West,268,5.0,12.0,56,0.00,,,0.00,819.000000,,2013-04-30 00:11:00,
2013-04-29 14:21:00,82.0,65.0,-100.00,West,268,5.0,12.0,56,0.00,,,0.00,819.000000,,2013-04-30 00:21:00,
2013-04-29 14:42:00,82.0,64.0,-100.00,West,267,5.0,10.0,55,0.00,,,0.00,848.000000,,2013-04-30 00:42:00,
2013-04-29 14:52:00,82.0,64.0,-100.00,West,267,5.0,10.0,55,0.00,,,0.00,848.000000,,2013-04-30 00:52:00,
2013-04-29 15:01:00,82.0,64.0,-100.00,West,267,5.0,10.0,55,0.00,,,0.00,848.000000,,2013-04-30 01:01:00,
2013-04-29 15:11:00,82.0,64.0,-100.00,West,267,5.0,10.0,55,0.00,,,0.00,848.000000,,2013-04-30 01:11:00,
2013-04-29 15:21:00,82.0,64.0,-100.00,West,267,5.0,10.0,55,0.00,,,0.00,848.000000,,2013-04-30 01:21:00,
2013-04-29 15:42:00,84.0,65.0,-100.00,West,270,5.0,10.0,53,0.00,,,0.00,860.000000,,2013-04-30 01:42:00,
2013-04-29 15:52:00,84.0,65.0,-100.00,West,270,5.0,10.0,53,0.00,,,0.00,860.000000,,2013-04-30 01:52:00,
2013-04-29 16:01:00,84.0,65.0,-100.00,West,270,5.0,10.0,53,0.00,,,0.00,860.000000,,2013-04-30 02:01:00,
2013-04-29 16:11:00,84.0,65.0,-100.00,West,270,5.0,10.0,53,0.00,,,0.00,860.000000,,2013-04-30 02:11:00,
2013-04-29 16:21:00,84.0,65.0,-100.00,West,270,5.0,10.0,53,0.00,,,0.00,860.000000,,2013-04-30 02:21:00,
2013-04-29 16:51:00,83.0,64.0,-100.00,West,269,5.0,10.0,53,0.00,,,0.00,677.000000,,2013-04-30 02:51:00,
2013-04-29 17:01:00,83.0,64.0,-100.00,West,269,5.0,10.0,53,0.00,,,0.00,677.000000,,2013-04-30 03:01:00,
2013-04-29 17:11:00,83.0,64.0,-100.00,West,269,5.0,10.0,53,0.00,,,0.00,677.000000,,2013-04-30 03:11:00,
2013-04-29 17:21:00,83.0,64.0,-100.00,West,269,5.0,10.0,53,0.00,,,0.00,677.000000,,2013-04-30 03:21:00,
2013-04-29 18:52:00,82.0,62.0,-100.00,WNW,303,4.0,10.0,51,-99.99,,,0.00,266.000000,,2013-04-30 04:52:00,
2013-04-29 19:02:00,82.0,62.0,-100.00,WNW,303,4.0,10.0,51,-99.99,,,0.00,266.000000,,2013-04-30 05:02:00,
2013-04-29 19:11:00,82.0,62.0,-100.00,WNW,303,4.0,10.0,51,-99.99,,,0.00,266.000000,,2013-04-30 05:11:00,
2013-04-29 19:21:00,82.0,62.0,-100.00,WNW,303,4.0,10.0,51,-99.99,,,0.00,266.000000,,2013-04-30 05:21:00,
2013-04-29 20:42:00,79.0,63.0,-100.00,North,354,4.0,10.0,58,-99.99,,,0.00,0.000000,,2013-04-30 06:42:00,
2013-04-29 20:52:00,79.0,63.0,-100.00,North,354,4.0,10.0,58,-99.99,,,0.00,0.000000,,2013-04-30 06:52:00,
2013-04-29 21:01:00,79.0,63.0,-100.00,North,354,4.0,10.0,58,-99.99,,,0.00,0.000000,,2013-04-30 07:01:00,
2013-04-29 21:11:00,79.0,63.0,-100.00,North,354,4.0,10.0,58,-99.99,,,0.00,0.000000,,2013-04-30 07:11:00,
2013-04-29 21:21:00,79.0,63.0,-100.00,North,354,4.0,10.0,58,-99.99,,,0.00,0.000000,,2013-04-30 07:21:00,
2013-04-29 21:42:00,78.0,63.0,-100.00,NE,51,4.0,10.0,60,0.00,,,0.00,0.000000,,2013-04-30 07:42:00,
2013-04-29 21:52:00,78.0,63.0,-100.00,NE,51,4.0,10.0,60,0.00,,,0.00,0.000000,,2013-04-30 07:52:00,
2013-04-29 22:02:00,78.0,63.0,-100.00,NE,51,4.0,10.0,60,0.00,,,0.00,0.000000,,2013-04-30 08:02:00,
2013-04-29 22:11:00,78.0,63.0,-100.00,NE,51,4.0,10.0,60,0.00,,,0.00,0.000000,,2013-04-30 08:11:00,
2013-04-29 22:21:00,78.0,63.0,-100.00,NE,51,4.0,10.0,60,0.00,,,0.00,0.000000,,2013-04-30 08:21:00,
2013-04-29 22:42:00,78.0,60.0,-100.00,ENE,62,3.0,6.0,54,0.00,,,0.00,0.000000,,2013-04-30 08:42:00,
2013-04-29 22:52:00,78.0,60.0,-100.00,ENE,62,3.0,6.0,54,0.00,,,0.00,0.000000,,2013-04-30 08:52:00,
2013-04-29 23:01:00,78.0,60.0,-100.00,ENE,62,3.0,6.0,54,0.00,,,0.00,0.000000,,2013-04-30 09:01:00,
2013-04-29 23:11:00,78.0,60.0,-100.00,ENE,62,3.0,6.0,54,0.00,,,0.00,0.000000,,2013-04-30 09:11:00,
2013-04-29 23:21:00,78.0,60.0,-100.00,ENE,62,3.0,6.0,54,0.00,,,0.00,0.000000,,2013-04-30 09:21:00,